Tracking 28799 objects as of 17-Apr-2024
HD Live streaming from Space Station
objects crossing your sky now

LEMUR 2 ROHOVITHSA

Track LEMUR 2 ROHOVITHSA now!
10-day predictions
LEMUR 2 ROHOVITHSA is classified as:


NORAD ID: 51036
Int'l Code: 2022-002BE
Perigee: 422.1 km
Apogee: 429.3 km
Inclination: 97.4 °
Period: 92.9 minutes
Semi major axis: 6796 km
RCS: Unknown
Launch date: January 13, 2022
Source: United States (US)
Launch site: AIR FORCE EASTERN TEST RANGE (AFETR)
Your satellite tracking list
Your tracking list is empty




NASA's NSSDC Master Catalog

Two Line Element Set (TLE):
1 51036U 22002BE  24108.49512739  .00116615  00000-0  21010-2 0  9992
2 51036  97.3956 182.2627 0005291 217.1424 142.9462 15.49356887125554
Source of the keplerian elements: AFSPC